Location: Brusselsch Zeekanaal
(50.8667°N, 4.3667°E)
Time: 00:57:00
(UTC+00:00)

ACS3 Solar Sail - Visible Passes

Search period start: 25 January 2026 00:00
Search period end: 04 February 2026 00:00
Orbit: 900 x 974 km, 97.2° (Epoch: 24 January)

Date Brightness Start Highest point End Pass type
(mag) Time Alt. Az. Time Alt. Az. Time Alt. Az.
29 Jan 4.4 02:36:55 10° N 02:36:56 10° N 02:36:56 10° N visible
30 Jan 4.3 02:50:10 10° N 02:50:19 11° N 02:50:19 11° N visible
31 Jan 4.2 03:03:24 10° N 03:03:39 11° N 03:03:39 11° N visible
1 Feb 4.1 03:16:36 10° N 03:16:56 11° N 03:16:56 11° N visible
2 Feb 4.1 03:29:49 10° N 03:30:09 11° N 03:30:09 11° N visible
3 Feb 4.0 03:43:00 10° N 03:43:19 11° N 03:43:19 11° N visible
